Regional Weather Roundup
Issued by NWS

Home | Current Version | Previous Version | Graphics & Text | Print | Product List | Glossary On
Versions: 1 2 3 4 5 6 7 8 9 10 11 12 13 14 15 16 17 18 19 20 21 22 23 24 25 26 27 28 29 30 31 32 33 34 35 36 37 38 39 40 41 42 43 44 45 46 47 48 49 50
000
ASUS43 KLOT 281608
RWRIL

ILLINOIS REGIONAL WEATHER ROUNDUP
NATIONAL WEATHER SERVICE CHICAGO/ROMEOVILLE IL
1100 AM CDT FRI APR 28 2017

NOTE: "FAIR" INDICATES FEW OR NO CLOUDS BELOW 12,000 FEET WITH NO
SIGNIFICANT WEATHER AND/OR OBSTRUCTIONS TO VISIBILITY.

* THESE STATIONS ARE NOT UNDER NWS QUALITY CONTROL. THEY ALSO MAY NOT
  REPORT WEATHER SUCH AS PRECIPITATION OR FOG.

ILZ001-002-007-009-015-016-024-281700-
NORTHWEST ILLINOIS

CITY           SKY/WX    TMP DP  RH WIND       PRES   REMARKS
MOLINE         LGT RAIN  44  38  79 NE10      29.91R
STERLING*      CLOUDY    47  38  71 E12       29.93F
SAVANNA*       CLOUDY    44  34  66 NE8       29.92F
$$

ILZ003-004-008-010-011-017-018-281700-
NORTH CENTRAL ILLINOIS

CITY           SKY/WX    TMP DP  RH WIND       PRES   REMARKS
ROCKFORD       CLOUDY    49  33  54 VRB3      29.95S
FREEPORT*      CLOUDY    41  34  76 E3        29.95R
ROCHELLE*      CLOUDY    48  39  70 NE3       29.94S
DE KALB*       CLOUDY    51  42  70 SE3       29.94S
PERU*          CLOUDY    49  41  75 E8        29.91F
$$

ILZ005-006-012>014-019>023-281700-
NORTHEAST ILLINOIS

CITY           SKY/WX    TMP DP  RH WIND       PRES   REMARKS
CHICAGO-OHARE  CLOUDY    55  41  59 VRB5      29.94R
CHICAGO-MIDWAY PTSUNNY   56  45  66 VRB6      29.95R
AURORA         CLOUDY    53  43  68 SE7       29.93F
LANSING*       CLOUDY    56  50  80 S8        29.96R
JOLIET*        CLOUDY    54  48  80 SE6       29.94F
WAUKEGAN       CLOUDY    52  39  61 S7        29.94R
DUPAGE AIRPORT CLOUDY    55  44  66 S7        29.93R
KANKAKEE*      CLOUDY    55  47  75 CALM      29.95F
WHEELING       MOSUNNY   54  42  64 S6        29.95R
MORRIS*        CLOUDY    53  46  78 CALM      29.93F
ROMEOVILLE*    CLOUDY    53  49  85 S7        29.94S
NORTHERLY ISL    N/A     49  41  74 E6          N/A
$$

LMZ740>746-281700-
SOUTHERN LAKE MICHIGAN

STATION/POSITION SKY/WX   TEMP    WIND        PRES    VSBY  WAVE
                          AIR SEA DIR/SP/G                  HT/PER
                          (F)     (DEG/KT/KT) (MB)    (MI)  (FT/S)
SOUTHERN BUOY              42 41  270/  4/  4 1014.9          1/ 3
HARRISON CRIB              48     120/  6/  7   N/A
BURNHAM HARBOR             49      80/  5/  6   N/A
CALUMET HARBOR             47      70/  4/  6 1014.0R
BURNS HARBOR               49      40/  5/  5 1015.2R
MICHIGAN CITY              46      20/  6/  7   N/A
MICHIGAN CITY 6N           45 46                N/A           1
ST. JOSEPH                 47 48  330/  4/  4 1015.9          1
$$

ILZ025>027-034>036-040-047-049-050-058-095>099-281700-
WEST-CENTRAL ILLINOIS

CITY           SKY/WX    TMP DP  RH WIND       PRES   REMARKS
QUINCY         RAIN      53  52  96 SE12      29.82R FOG
GALESBURG*     CLOUDY    46  41  82 NE8       29.88R
MACOMB*        CLOUDY    48  48  98 NE8       29.88R FOG
JACKSONVILLE*  LGT RAIN  53  51  93 SE10      29.84S
PITTSFIELD*    LGT RAIN  54  53  96 SE8       29.84R
$$

ILZ028>032-037-038-041>044-048-051>054-059>061-281700-
CENTRAL ILLINOIS

CITY           SKY/WX    TMP DP  RH WIND       PRES   REMARKS
PONTIAC        CLOUDY    55  51  87 SE10      29.93F
BLOOMINGTON    LGT RAIN  51  48  89 SE13G21   29.91R
DECATUR        CLOUDY    54  51  90 SE15      29.89F
PEORIA         CLOUDY    56  49  77 SE8       29.89S
LACON*         CLOUDY    52  48  86 E9        29.89F
LINCOLN*       CLOUDY    54  51  90 SE6       29.88F
SPRINGFIELD    LGT RAIN  55  51  86 SE8       29.87F
TAYLORVILLE    CLOUDY    55  51  85 SE16G22   29.85F
$$

ILZ033-039-045-046-055>057-062-063-281700-
EAST-CENTRAL ILLINOIS

CITY           SKY/WX    TMP DP  RH WIND       PRES   REMARKS
CHAMPAIGN      LGT RAIN  53  49  86 SE18      29.92F
RANTOUL*       CLOUDY    55  51  87 SE13G18   29.93F
MATTOON        LGT RAIN  51  49  92 SE15      29.92S
PARIS*         CLOUDY    52  49  92 E8        29.96F
$$

ILZ079-100>102-281700-
SOUTHWEST ILLINOIS

CITY           SKY/WX    TMP DP  RH WIND       PRES   REMARKS
ALTON          LGT RAIN  54  52  94 SE14      29.85F
BELLEVILLE     CLOUDY    55  55 100 NE7       29.83F
CAHOKIA*       CLOUDY    55  51  86 E8        29.84F
$$

ILZ064>066-069>071-074>076-080>082-084>086-088>090-092>094-281700-
SOUTH-CENTRAL ILLINOIS

CITY           SKY/WX    TMP DP  RH WIND       PRES   REMARKS
CARBONDALE     CLOUDY    59  54  83 E7        29.86F
CAIRO*         CLOUDY    64  57  76 NE6       29.85F
EFFINGHAM*     CLOUDY    53  52  95 E8        29.95R
MARION         CLOUDY    59  55  88 SE9       29.90F
MT. VERNON     CLOUDY    56  52  86 SE5       29.92R
CENTRALIA*     CLOUDY    56  53  90 E5        29.90F
SALEM*         CLOUDY    56  51  85 CALM      29.93R
METROPOLIS*    CLOUDY    63  56  77 NE5       29.88S
$$

ILZ067-068-072-073-078-083-087-091-281700-
SOUTHEAST ILLINOIS

CITY           SKY/WX    TMP DP  RH WIND       PRES   REMARKS
LAWRENCEVILLE  LGT RAIN  56  51  84 SE10      29.96R
FLORA*         LGT RAIN  57  53  86 SE9       29.94S
FAIRFIELD*     CLOUDY    57  52  83 E8        29.89F
HARRISBURG*    CLOUDY    58  54  85 E10       29.89F
ROBINSON*      CLOUDY    53  50  87 E8        29.97R
CARMI*         CLOUDY    58  54  84 E14       29.90F
$$

ABBREVIATIONS USED IN REMARKS
   TC - TEMPERATURE IN CELSIUS
  WCI - WIND CHILL INDEX
   HX - HEAT INDEX
  VSB - VISIBILITY
$$




USA.gov is the U.S. government's official web portal to all federal, state and local government web resources and services.